TimeEDT,TemperatureF,Dew PointF,Humidity,Sea Level PressureIn,VisibilityMPH,Wind Direction,Wind SpeedMPH,Gust SpeedMPH,PrecipitationIn,Events,Conditions,WindDirDegrees,DateUTC
12:53 AM,51.1,48.9,92,30.03,10.0,Variable,3.5,-,N/A,,Mostly Cloudy,0,2013-05-22 04:53:00
1:06 AM,51.8,48.2,88,30.00,10.0,SE,3.5,-,N/A,,Overcast,130,2013-05-22 05:06:00
1:37 AM,50.0,48.2,94,29.98,10.0,Variable,3.5,-,0.00,Rain,Light Rain,0,2013-05-22 05:37:00
1:53 AM,50.0,48.0,93,30.01,10.0,Variable,3.5,-,0.00,,Overcast,0,2013-05-22 05:53:00
2:53 AM,50.0,48.0,93,30.01,10.0,Calm,Calm,-,0.00,Rain,Light Rain,0,2013-05-22 06:53:00
3:53 AM,50.0,48.0,93,30.03,8.0,Calm,Calm,-,0.03,Rain,Light Rain,0,2013-05-22 07:53:00
4:46 AM,48.2,48.2,100,30.02,7.0,ESE,3.5,-,0.06,Rain,Rain,110,2013-05-22 08:46:00
4:53 AM,48.9,48.0,97,30.04,7.0,ESE,4.6,-,0.07,Rain,Light Rain,110,2013-05-22 08:53:00
5:24 AM,48.2,46.4,93,30.01,8.0,East,4.6,-,0.03,Rain,Light Rain,100,2013-05-22 09:24:00
5:53 AM,48.9,46.9,93,30.02,8.0,East,4.6,-,0.05,Rain,Light Rain,100,2013-05-22 09:53:00
6:01 AM,48.2,46.4,93,30.00,10.0,East,5.8,-,0.01,Rain,Light Rain,100,2013-05-22 10:01:00
6:53 AM,48.9,46.9,93,30.01,5.0,Variable,4.6,-,0.06,Rain,Rain,0,2013-05-22 10:53:00
7:26 AM,48.2,48.2,100,30.01,2.5,East,3.5,-,0.06,Rain,Rain,80,2013-05-22 11:26:00
7:35 AM,48.2,48.2,100,30.01,3.0,ESE,3.5,-,0.07,Rain,Rain,110,2013-05-22 11:35:00
7:48 AM,48.2,48.2,100,30.02,2.5,ESE,5.8,-,0.10,Rain,Rain,120,2013-05-22 11:48:00
7:53 AM,50.0,48.0,93,30.04,3.0,ESE,4.6,-,0.11,Rain,Rain,120,2013-05-22 11:53:00
8:50 AM,50.0,48.2,94,30.01,4.0,Variable,6.9,-,0.03,Rain,Light Rain,0,2013-05-22 12:50:00
8:53 AM,50.0,48.9,96,30.03,4.0,ESE,5.8,-,0.03,Rain,Light Rain,120,2013-05-22 12:53:00
9:38 AM,51.8,48.2,88,30.01,6.0,ESE,8.1,-,0.01,,Overcast,110,2013-05-22 13:38:00
9:46 AM,51.8,50.0,94,30.00,4.0,ESE,9.2,-,0.01,,Overcast,110,2013-05-22 13:46:00
9:53 AM,52.0,50.0,93,30.02,4.0,ESE,8.1,-,0.01,,Overcast,120,2013-05-22 13:53:00
10:39 AM,53.6,50.0,88,30.00,10.0,Variable,5.8,-,N/A,,Overcast,0,2013-05-22 14:39:00
10:53 AM,53.1,50.0,89,30.02,6.0,SE,6.9,-,N/A,,Overcast,130,2013-05-22 14:53:00
11:09 AM,53.6,51.8,94,30.01,2.5,SSE,5.8,-,N/A,,Overcast,150,2013-05-22 15:09:00
11:53 AM,53.1,50.0,89,30.02,2.5,ESE,4.6,-,0.01,Rain,Light Rain,120,2013-05-22 15:53:00
12:11 PM,53.6,50.0,88,30.00,3.0,ESE,6.9,-,0.00,,Overcast,120,2013-05-22 16:11:00
12:28 PM,53.6,51.8,94,30.00,3.0,SE,5.8,-,0.00,,Overcast,130,2013-05-22 16:28:00
12:50 PM,53.6,51.8,94,30.00,3.0,SE,5.8,-,0.00,,Overcast,130,2013-05-22 16:50:00
12:53 PM,53.1,51.1,93,30.02,3.0,Variable,4.6,-,0.00,,Overcast,0,2013-05-22 16:53:00
1:06 PM,53.6,51.8,94,29.99,5.0,SE,8.1,-,N/A,,Overcast,130,2013-05-22 17:06:00
1:53 PM,54.0,51.1,90,30.01,5.0,ESE,5.8,-,0.00,,Overcast,110,2013-05-22 17:53:00
2:08 PM,53.6,51.8,94,29.99,9.0,SE,5.8,-,N/A,,Overcast,130,2013-05-22 18:08:00
2:41 PM,53.6,51.8,94,29.99,4.0,ESE,3.5,-,0.01,,Overcast,120,2013-05-22 18:41:00
2:53 PM,54.0,52.0,93,30.01,2.5,ESE,5.8,-,0.01,,Overcast,120,2013-05-22 18:53:00
3:01 PM,53.6,51.8,94,29.98,2.5,ESE,6.9,-,N/A,,Overcast,120,2013-05-22 19:01:00
3:05 PM,53.6,51.8,94,29.98,3.0,ESE,5.8,-,N/A,,Overcast,120,2013-05-22 19:05:00
3:26 PM,53.6,53.6,100,29.98,3.0,ESE,4.6,-,N/A,,Overcast,120,2013-05-22 19:26:00
3:38 PM,53.6,51.8,94,29.97,2.0,ESE,5.8,-,0.00,Rain,Light Rain,120,2013-05-22 19:38:00
3:53 PM,55.0,53.1,93,29.99,3.0,ESE,5.8,-,0.00,,Overcast,120,2013-05-22 19:53:00
4:17 PM,55.4,53.6,94,29.97,5.0,SE,4.6,-,N/A,,Overcast,130,2013-05-22 20:17:00
4:37 PM,55.4,51.8,88,29.96,4.0,SE,8.1,-,N/A,,Overcast,130,2013-05-22 20:37:00
4:53 PM,55.0,52.0,89,29.97,5.0,ESE,9.2,-,N/A,,Overcast,120,2013-05-22 20:53:00
5:15 PM,55.4,51.8,88,29.96,2.0,SE,5.8,-,N/A,,Overcast,130,2013-05-22 21:15:00
5:27 PM,55.4,53.6,94,29.97,3.0,SE,4.6,-,N/A,,Overcast,130,2013-05-22 21:27:00
5:32 PM,53.6,51.8,94,29.97,1.8,SSE,3.5,-,0.01,Rain,Light Rain,150,2013-05-22 21:32:00
5:38 PM,55.4,53.6,94,29.97,1.2,SE,4.6,-,0.01,Rain,Light Rain,130,2013-05-22 21:38:00
5:51 PM,55.4,53.6,94,29.97,1.8,SE,5.8,-,0.02,Rain,Light Rain,130,2013-05-22 21:51:00
5:53 PM,55.0,53.1,93,29.99,1.5,Variable,3.5,-,0.02,Rain,Light Rain,0,2013-05-22 21:53:00
6:31 PM,53.6,51.8,94,29.97,2.0,Variable,6.9,-,0.01,,Overcast,0,2013-05-22 22:31:00
6:40 PM,53.6,51.8,94,29.97,1.8,Variable,3.5,-,0.01,Rain,Light Rain,0,2013-05-22 22:40:00
6:53 PM,54.0,52.0,93,29.99,1.5,Variable,5.8,-,0.02,Rain,Light Rain,0,2013-05-22 22:53:00
6:58 PM,53.6,51.8,94,29.97,2.0,Variable,5.8,-,0.00,Rain,Light Rain,0,2013-05-22 22:58:00
7:21 PM,53.6,51.8,94,29.98,3.0,Variable,4.6,-,0.00,,Overcast,0,2013-05-22 23:21:00
7:30 PM,53.6,51.8,94,29.98,5.0,Variable,3.5,-,0.00,,Overcast,0,2013-05-22 23:30:00
7:38 PM,53.6,51.8,94,29.97,1.8,SE,5.8,-,0.00,,Overcast,140,2013-05-22 23:38:00
7:48 PM,53.6,51.8,94,29.98,1.2,SE,4.6,-,0.01,,Overcast,140,2013-05-22 23:48:00
7:53 PM,53.1,51.1,93,30.00,1.5,SE,8.1,-,0.01,,Overcast,130,2013-05-22 23:53:00
8:07 PM,51.8,50.0,94,29.99,2.5,SE,5.8,-,N/A,,Overcast,130,2013-05-23 00:07:00
8:14 PM,51.8,50.0,94,29.98,4.0,SE,5.8,-,N/A,,Overcast,140,2013-05-23 00:14:00
8:31 PM,51.8,50.0,94,29.98,5.0,SE,5.8,-,N/A,,Overcast,140,2013-05-23 00:31:00
8:53 PM,51.1,50.0,96,30.00,4.0,SE,6.9,-,N/A,,Overcast,130,2013-05-23 00:53:00
9:40 PM,51.8,48.2,88,29.99,2.0,SSE,3.5,-,N/A,,Overcast,150,2013-05-23 01:40:00
9:53 PM,51.1,48.9,92,30.00,3.0,ESE,4.6,-,0.01,,Overcast,120,2013-05-23 01:53:00
10:19 PM,50.0,48.2,94,29.98,2.5,SE,4.6,-,N/A,,Overcast,140,2013-05-23 02:19:00
10:31 PM,51.8,48.2,88,29.97,6.0,SE,3.5,-,N/A,,Overcast,140,2013-05-23 02:31:00
10:43 PM,51.8,48.2,88,29.97,10.0,SE,4.6,-,N/A,,Overcast,130,2013-05-23 02:43:00
10:53 PM,51.1,48.9,92,29.99,10.0,SE,3.5,-,N/A,,Overcast,140,2013-05-23 02:53:00
11:53 PM,50.0,48.0,93,29.98,9.0,Variable,5.8,-,0.00,,Overcast,0,2013-05-23 03:53:00